DW5247 Lemo FI current weather conditions

sailwx.info

Wind at 0 knots gusting 2

Air temperature 15.6° C
Dewpoint 12.5° C

Last reported at 2015-Sep-05 15:52 UTC.
Time now 2015-Sep-05 16:17 UTC

Location: N 62°41' E 029°49'.
View on Google Maps.

See reports from other nearby stations

  
Tides and Currents Weather Stations Pressure Air Temp Water Temp Dewpoint Dewpoint Depression Visibility Wind Speed Wind Dir Waves Ship Positions
date/time (UTC)wind fromknots sea level pressurealtimeterstation pressurevisibilityair tempwater tempwave heightnotes
2015-Sep-05 15:52 15.6
2015-Sep-05 15:47 023 0 gusting 2 15.6
2015-Sep-05 15:42 045 0 gusting 2 15.6
2015-Sep-05 15:37 023 0 gusting 5 15.6
2015-Sep-05 15:32 023 1 gusting 5 15.6
2015-Sep-05 15:27 023 1 gusting 5 15.6
2015-Sep-05 15:22 023 1 gusting 3 15.6
2015-Sep-05 15:17 023 1 gusting 4 15.6
2015-Sep-05 15:12 045 1 gusting 4 15.6
2015-Sep-05 15:07 023 2 gusting 4 15.6
2015-Sep-05 15:02 068 1 gusting 3 15.6
2015-Sep-05 14:57 023 1 gusting 2 16.1
2015-Sep-05 14:52 023 0 gusting 2 16.1
2015-Sep-05 14:47 023 1 gusting 3 16.1
2015-Sep-05 14:42 023 1 gusting 3 16.1
2015-Sep-05 14:37 023 1 gusting 3 16.1
2015-Sep-05 14:32 023 1 gusting 5 16.1
2015-Sep-05 14:27 068 1 gusting 5 16.1
2015-Sep-05 14:22 023 2 gusting 4 16.1
2015-Sep-05 14:17 023 2 gusting 8 16.1
2015-Sep-05 14:12 203 2 gusting 8 16.1
2015-Sep-05 14:07 045 2 gusting 8 16.7
2015-Sep-05 14:02 045 3 gusting 6 16.7
2015-Sep-05 13:57 045 2 gusting 6 16.7
2015-Sep-05 13:52 023 2 gusting 5 16.7
2015-Sep-05 13:47 023 2 gusting 7 16.7
2015-Sep-05 13:42 023 2 gusting 9 16.7
2015-Sep-05 13:37 023 2 gusting 9 16.7
2015-Sep-05 13:32 16.7
2015-Sep-05 13:27 023 3 gusting 3 16.7
2015-Sep-05 13:22 045 2 gusting 4 16.7
2015-Sep-05 13:17 023 2 gusting 4 16.7
2015-Sep-05 13:12 045 2 gusting 4 16.7
2015-Sep-05 13:07 045 1 gusting 4 16.7
2015-Sep-05 13:02 023 2 gusting 4 16.7
2015-Sep-05 12:57 045 2 gusting 4 16.7
2015-Sep-05 12:52 068 1 gusting 3 16.7
2015-Sep-05 12:47 023 1 gusting 4 16.7
2015-Sep-05 12:42 023 2 gusting 4 16.7
2015-Sep-05 12:37 068 2 gusting 4 16.7
2015-Sep-05 12:32 023 1 gusting 5 16.7
2015-Sep-05 12:27 045 1 gusting 5 16.7
2015-Sep-05 12:22 180 1 gusting 3 16.7
2015-Sep-05 12:17 023 1 gusting 4 16.7
2015-Sep-05 12:12 023 1 gusting 4 16.7
2015-Sep-05 12:07 023 1 gusting 4 16.7
2015-Sep-05 12:02 023 1 gusting 3 16.7
2015-Sep-05 11:57 023 1 gusting 3 16.7
2015-Sep-05 11:52 045 1 gusting 2 16.7
2015-Sep-05 11:47 023 1 gusting 2 16.7
2015-Sep-05 11:42 338 1 gusting 2 16.7
2015-Sep-05 11:37 023 1 gusting 4 16.7
2015-Sep-05 11:32 023 1 gusting 4 16.7
2015-Sep-05 11:27 045 1 gusting 4 16.7
2015-Sep-05 11:22 023 1 gusting 6 16.7
2015-Sep-05 11:17 135 1 gusting 6 16.7
2015-Sep-05 11:12 068 2 gusting 6 16.7
2015-Sep-05 11:07 068 2 gusting 6 16.7
2015-Sep-05 11:02 023 1 gusting 4 16.7
2015-Sep-05 10:57 023 2 gusting 4 16.1
2015-Sep-05 10:52 023 2 gusting 3 16.1
2015-Sep-05 10:47 045 1 gusting 3 16.1
2015-Sep-05 10:42 045 2 gusting 4 16.1
2015-Sep-05 10:37 023 2 gusting 4 16.1
2015-Sep-05 10:32 248 2 gusting 4 15.6
2015-Sep-05 10:27 068 2 gusting 5 15.6
2015-Sep-05 10:22 023 2 gusting 5 15.6
2015-Sep-05 10:17 023 2 gusting 5 15.6
2015-Sep-05 10:12 023 2 gusting 5 15.6
2015-Sep-05 10:07 023 1 gusting 5 15.6
2015-Sep-05 10:02 023 2 gusting 5 15.6
2015-Sep-05 09:57 045 2 gusting 5 15.6
2015-Sep-05 09:52 023 2 gusting 2 15.6
2015-Sep-05 09:47 023 1 gusting 5 15.6
2015-Sep-05 09:42 180 2 gusting 5 15.6
2015-Sep-05 09:37 068 2 gusting 5 15.6
2015-Sep-05 09:32 338 1 gusting 4 15.6
2015-Sep-05 09:27 338 1 gusting 4 15.6
2015-Sep-05 09:22 068 3 gusting 4 15.0
2015-Sep-05 09:17 023 3 gusting 3 15.0
2015-Sep-05 09:12 338 3 gusting 4 15.0
2015-Sep-05 09:07 338 3 gusting 4 15.0
2015-Sep-05 09:02 045 3 gusting 5 15.0
2015-Sep-05 08:57 045 2 gusting 5 14.4
2015-Sep-05 08:52 023 3 gusting 5 14.4
2015-Sep-05 08:47 068 3 gusting 5 14.4
2015-Sep-05 08:42 045 1 gusting 5 14.4
2015-Sep-05 08:37 14.4
2015-Sep-05 08:32 023 2 gusting 4 14.4
2015-Sep-05 08:27 023 1 gusting 4 13.9
2015-Sep-05 08:22 023 1 gusting 4 13.9
2015-Sep-05 08:17 113 2 gusting 2 13.9
2015-Sep-05 08:12 023 1 gusting 5 13.9
2015-Sep-05 08:07 023 1 gusting 5 13.9
2015-Sep-05 08:02 068 2 gusting 5 13.3
2015-Sep-05 07:57 023 2 gusting 3 13.3
2015-Sep-05 07:52 068 2 gusting 4 13.3
2015-Sep-05 07:47 045 2 gusting 6 13.9
2015-Sep-05 07:42 13.9
2015-Sep-05 07:37 068 2 gusting 6 13.9
2015-Sep-05 07:32 023 2 gusting 6 13.9
2015-Sep-05 07:27 023 3 gusting 5 13.9
2015-Sep-05 07:22 023 2 gusting 6 13.9
2015-Sep-05 07:17 023 3 gusting 6 13.9
2015-Sep-05 07:12 023 2 gusting 3 13.9
2015-Sep-05 07:07 113 1 gusting 3 13.9
2015-Sep-05 07:02 023 1 gusting 2 13.3
2015-Sep-05 06:57 045 2 gusting 3 13.3
2015-Sep-05 06:52 023 2 gusting 4 13.3
2015-Sep-05 06:47 023 2 gusting 4 12.8
2015-Sep-05 06:42 023 2 gusting 4 12.8
2015-Sep-05 06:37 338 2 gusting 3 12.8
2015-Sep-05 06:32 023 2 gusting 3 12.2
2015-Sep-05 06:27 068 1 gusting 2 12.2
2015-Sep-05 06:22 023 0 gusting 4 12.2
2015-Sep-05 06:17 023 1 gusting 4 12.2
2015-Sep-05 06:12 11.7
2015-Sep-05 06:07 045 2 gusting 4 11.7
2015-Sep-05 06:02 023 2 gusting 4 11.7
2015-Sep-05 05:57 023 2 gusting 3 11.7
2015-Sep-05 05:52 023 1 gusting 2 11.7
2015-Sep-05 05:47 11.7
2015-Sep-05 05:42 023 0 gusting 2 11.7
2015-Sep-05 05:37 023 0 gusting 1 11.7
2015-Sep-05 05:32 068 0 gusting 5 11.7
2015-Sep-05 05:27 045 1 gusting 5 11.7
2015-Sep-05 05:22 023 1 gusting 3 11.7
2015-Sep-05 05:17 045 1 gusting 3 11.7
2015-Sep-05 05:12 11.7
2015-Sep-05 05:07 023 1 gusting 2 11.7
2015-Sep-05 05:02 023 1 gusting 3 11.7
2015-Sep-05 04:57 023 1 gusting 6 11.7
2015-Sep-05 04:52 045 1 gusting 6 11.7
2015-Sep-05 04:47 045 1 gusting 2 11.7
2015-Sep-05 04:42 045 1 gusting 4 11.7
2015-Sep-05 04:37 045 1 gusting 4 11.7
2015-Sep-05 04:32 068 2 gusting 4 11.7
2015-Sep-05 04:27 023 1 gusting 4 11.7
2015-Sep-05 04:22 045 1 gusting 3 11.7
2015-Sep-05 04:17 068 1 gusting 2 11.7
2015-Sep-05 04:12 023 0 gusting 2 12.2
2015-Sep-05 04:07 045 0 gusting 3 11.7
2015-Sep-05 04:02 068 0 gusting 3 11.7
2015-Sep-05 03:57 023 1 gusting 3 11.7
2015-Sep-05 03:52 023 1 gusting 3 11.7
2015-Sep-05 03:47 023 1 gusting 3 11.7
2015-Sep-05 03:42 023 1 gusting 3 11.7
2015-Sep-05 03:37 338 1 gusting 2 11.7
2015-Sep-05 03:32 113 0 gusting 1 11.7
2015-Sep-05 03:27 045 0 gusting 1 11.7
2015-Sep-05 03:22 023 0 gusting 1 11.7
2015-Sep-05 03:17 023 11.7
2015-Sep-05 03:12 023 11.7
2015-Sep-05 03:07 023 11.7
2015-Sep-05 03:02 023 0 gusting 1 11.7
2015-Sep-05 02:57 023 0 gusting 1 11.7
2015-Sep-05 02:52 023 11.7
2015-Sep-05 02:47 045 12.2
2015-Sep-05 02:42 045 12.2
2015-Sep-05 02:37 023 0 gusting 1 12.2
2015-Sep-05 02:32 338 0 gusting 1 12.2
2015-Sep-05 02:27 023 0 gusting 2 12.2
2015-Sep-05 02:22 023 0 gusting 2 12.2
2015-Sep-05 02:17 068 0 gusting 2 12.2
2015-Sep-05 02:12 023 0 gusting 1 12.2
2015-Sep-05 02:07 045 12.2
2015-Sep-05 02:02 023 12.2
2015-Sep-05 01:57 068 12.2
2015-Sep-05 01:52 023 12.2
2015-Sep-05 01:47 023 12.2
2015-Sep-05 01:42 068 0 gusting 2 12.2
2015-Sep-05 01:37 045 0 gusting 1 12.2
2015-Sep-05 01:32 12.2
2015-Sep-05 01:27 023 0 gusting 2 12.2
2015-Sep-05 01:22 068 0 gusting 2 12.2
2015-Sep-05 01:17 023 0 gusting 2 12.2
2015-Sep-05 01:12 023 0 gusting 2 12.2
2015-Sep-05 01:07 023 0 gusting 1 12.2
2015-Sep-05 01:02 023 0 gusting 1 12.2
2015-Sep-05 00:57 023 1 gusting 1 12.2
2015-Sep-05 00:52 023 0 gusting 2 12.2
2015-Sep-05 00:47 023 0 gusting 2 12.2
2015-Sep-05 00:42 023 0 gusting 1 12.2
2015-Sep-05 00:37 293 0 gusting 1 12.2
2015-Sep-05 00:32 023 12.2
2015-Sep-05 00:27 023 0 gusting 1 12.2
2015-Sep-05 00:22 068 0 gusting 1 12.2
2015-Sep-05 00:17 023 0 gusting 1 12.2
2015-Sep-05 00:12 045 0 gusting 1 12.2
2015-Sep-05 00:07 045 0 gusting 1 12.2
2015-Sep-05 00:02 338 12.2
2015-Sep-04 23:57 023 12.2
2015-Sep-04 23:52 023 0 gusting 2 12.2
2015-Sep-04 23:47 023 1 gusting 3 12.2
2015-Sep-04 23:42 045 1 gusting 3 12.2
2015-Sep-04 23:37 045 1 gusting 3 12.2
2015-Sep-04 23:32 023 1 gusting 2 12.2
2015-Sep-04 23:27 023 0 gusting 2 12.2
2015-Sep-04 23:22 023 0 gusting 2 12.2
2015-Sep-04 23:17 023 12.2
2015-Sep-04 23:12 023 12.2
2015-Sep-04 23:07 023 12.2
2015-Sep-04 23:02 023 12.2
2015-Sep-04 22:57 045 12.2
2015-Sep-04 22:52 023 0 gusting 2 12.2
2015-Sep-04 22:47 045 0 gusting 2 12.2
2015-Sep-04 22:42 023 0 gusting 2 12.2
2015-Sep-04 22:37 023 0 12.2
2015-Sep-04 22:32 045 12.2
2015-Sep-04 22:27 045 12.2
2015-Sep-04 22:22 045 12.2
2015-Sep-04 22:17 045 12.2
2015-Sep-04 22:12 045 12.2
2015-Sep-04 22:07 023 12.2
2015-Sep-04 22:02 045 12.2
2015-Sep-04 21:57 158 12.2
2015-Sep-04 20:57 068 0 gusting 1 12.2
2015-Sep-04 20:52 113 0 gusting 1 12.2
2015-Sep-04 20:47 068 0 gusting 2 12.2
2015-Sep-04 20:42 068 0 gusting 2 12.2
2015-Sep-04 20:37 068 0 gusting 2 12.2
2015-Sep-04 20:32 068 1 gusting 2 12.2
2015-Sep-04 20:27 068 0 gusting 1 12.2
2015-Sep-04 20:22 068 1 gusting 3 12.2
2015-Sep-04 20:17 068 1 gusting 3 12.2
2015-Sep-04 20:12 068 1 gusting 3 12.2
2015-Sep-04 20:07 090 1 gusting 2 12.2
2015-Sep-04 20:02 068 1 gusting 1 12.2
2015-Sep-04 19:57 068 0 gusting 1 12.2
2015-Sep-04 19:52 068 0 gusting 2 12.2
2015-Sep-04 19:47 068 0 gusting 2 12.2
2015-Sep-04 19:42 068 0 gusting 2 12.2
2015-Sep-04 19:37 068 0 gusting 1 12.2
2015-Sep-04 19:32 045 0 gusting 2 12.2
2015-Sep-04 19:27 045 0 gusting 2 12.2
2015-Sep-04 19:22 045 0 gusting 2 12.2
2015-Sep-04 19:17 068 0 gusting 1 12.8
2015-Sep-04 19:12 068 0 gusting 1 12.2
2015-Sep-04 19:07 068 0 gusting 1 12.8
2015-Sep-04 19:02 090 0 gusting 1 12.8
2015-Sep-04 18:57 068 0 gusting 1 12.8
2015-Sep-04 18:52 090 0 gusting 3 12.8
2015-Sep-04 18:47 068 0 gusting 3 12.8
2015-Sep-04 18:42 023 1 gusting 2 12.8
2015-Sep-04 18:37 113 1 gusting 1 12.8
2015-Sep-04 18:32 045 0 gusting 1 12.8
2015-Sep-04 18:27 068 0 gusting 2 12.8
2015-Sep-04 18:22 068 0 gusting 2 12.8
2015-Sep-04 18:17 090 0 gusting 1 12.8
2015-Sep-04 18:12 045 0 gusting 2 12.8
2015-Sep-04 18:07 023 0 gusting 2 12.8
2015-Sep-04 18:02 068 0 gusting 3 13.3
2015-Sep-04 17:57 068 0 gusting 3 13.3
2015-Sep-04 17:52 068 1 gusting 3 13.3
2015-Sep-04 17:47 090 1 gusting 3 13.3
2015-Sep-04 17:42 068 0 gusting 3 13.3
2015-Sep-04 17:37 045 0 gusting 3 13.3
2015-Sep-04 17:32 045 13.3
2015-Sep-04 17:27 023 13.3
2015-Sep-04 17:22 023 13.3
2015-Sep-04 17:17 023 13.3
2015-Sep-04 17:12 023 0 gusting 2 13.9
2015-Sep-04 17:07 023 0 gusting 2 13.9
2015-Sep-04 17:02 023 0 gusting 2 13.9
2015-Sep-04 16:57 023 0 gusting 1 13.9
2015-Sep-04 16:52 023 13.9
2015-Sep-04 16:47 023 13.9
2015-Sep-04 16:42 023 13.9
2015-Sep-04 16:37 023 14.4
2015-Sep-04 16:32 023 0 gusting 3 14.4
2015-Sep-04 16:27 023 0 gusting 3 14.4
2015-Sep-04 16:22 14.4
2015-Sep-04 16:17 023 0 gusting 3 14.4
2015-Sep-04 16:12 023 0 gusting 3 14.4
2015-Sep-04 16:07 023 0 gusting 3 14.4
2015-Sep-04 16:02 023 0 gusting 1 14.4
2015-Sep-04 15:57 023 0 gusting 1 14.4
2015-Sep-04 15:52 045 0 gusting 2 14.4
2015-Sep-04 15:47 023 0 gusting 2 14.4
2015-Sep-04 15:42 14.4
2015-Sep-04 15:37 068 1 gusting 3 14.4
2015-Sep-04 15:32 023 1 gusting 3 14.4
2015-Sep-04 15:27 045 0 gusting 2 14.4
2015-Sep-04 15:22 338 0 gusting 3 14.4
2015-Sep-04 15:17 068 0 gusting 3 14.4
2015-Sep-04 15:12 14.4
2015-Sep-04 15:07 068 1 gusting 3 14.4
2015-Sep-04 15:02 068 0 gusting 3 14.4
2015-Sep-04 14:57 023 1 gusting 4 14.4
2015-Sep-04 14:52 023 1 gusting 4 14.4
2015-Sep-04 14:47 068 0 gusting 4 14.4
2015-Sep-04 14:42 068 0 gusting 3 13.9
2015-Sep-04 14:37 023 13.9
2015-Sep-04 14:32 090 0 gusting 4 13.9
2015-Sep-04 14:27 315 1 gusting 4 13.9
2015-Sep-04 14:22 045 1 gusting 4 13.9
2015-Sep-04 14:17 045 1 gusting 3 13.9
2015-Sep-04 14:12 068 1 gusting 3 13.9
2015-Sep-04 14:07 045 1 gusting 3 13.9
2015-Sep-04 14:02 023 1 gusting 2 13.9
2015-Sep-04 13:57 023 0 gusting 2 13.9
2015-Sep-04 13:52 068 0 gusting 2 13.9
2015-Sep-04 13:47 045 0 gusting 2 13.9
2015-Sep-04 13:42 023 1 gusting 2 13.9
2015-Sep-04 13:37 045 1 gusting 4 13.9
2015-Sep-04 13:32 068 0 gusting 4 14.4
2015-Sep-04 13:27 225 0 gusting 4 14.4
2015-Sep-04 13:22 068 0 gusting 3 14.4
2015-Sep-04 13:17 113 0 gusting 3 14.4
2015-Sep-04 13:12 113 0 gusting 4 14.4
2015-Sep-04 13:07 135 1 gusting 5 14.4
2015-Sep-04 13:02 023 2 gusting 5 15.0
2015-Sep-04 12:57 023 3 gusting 7 15.0
2015-Sep-04 12:52 068 3 gusting 7 15.0
2015-Sep-04 12:47 068 2 gusting 7 15.6
2015-Sep-04 12:42 068 1 gusting 4 15.0
2015-Sep-04 12:37 068 2 gusting 4 15.0
2015-Sep-04 12:32 068 2 gusting 3 15.6
2015-Sep-04 12:27 068 1 gusting 3 15.6
2015-Sep-04 12:22 068 1 gusting 3 15.6
2015-Sep-04 12:17 068 2 gusting 4 15.6
2015-Sep-04 12:12 090 2 gusting 4 15.0
2015-Sep-04 12:07 068 1 gusting 4 15.6
2015-Sep-04 12:02 068 1 gusting 3 15.0
2015-Sep-04 11:57 113 1 gusting 3 15.0
2015-Sep-04 11:52 023 1 gusting 3 15.6
2015-Sep-04 11:47 068 2 gusting 7 15.0
2015-Sep-04 11:42 023 2 gusting 7 15.0
2015-Sep-04 11:37 068 1 gusting 5 15.0
2015-Sep-04 11:32 045 2 gusting 5 15.0
2015-Sep-04 11:27 068 2 gusting 5 15.0
2015-Sep-04 11:22 068 2 gusting 6 15.0
2015-Sep-04 11:17 023 2 gusting 6 15.0
2015-Sep-04 11:12 068 3 gusting 6 15.0
2015-Sep-04 11:07 068 3 gusting 4 15.0
2015-Sep-04 11:02 023 3 gusting 7 15.0
2015-Sep-04 10:57 068 2 gusting 7 15.0
2015-Sep-04 10:52 090 2 gusting 7 14.4
2015-Sep-04 10:47 023 3 gusting 5 14.4
2015-Sep-04 10:42 14.4
2015-Sep-04 10:37 023 2 gusting 5 14.4
2015-Sep-04 10:32 090 2 gusting 6 14.4
2015-Sep-04 10:27 113 3 gusting 6 14.4
2015-Sep-04 10:22 315 3 gusting 5 14.4
2015-Sep-04 10:17 14.4
2015-Sep-04 10:12 023 3 gusting 5 14.4
2015-Sep-04 10:07 068 3 gusting 5 14.4
2015-Sep-04 10:02 068 3 gusting 5 14.4
2015-Sep-04 09:57 315 2 gusting 5 14.4
2015-Sep-04 09:52 068 2 gusting 5 14.4
2015-Sep-04 09:47 023 3 gusting 5 14.4
2015-Sep-04 09:42 068 2 gusting 4 13.9
2015-Sep-04 09:37 045 2 gusting 4 13.9
2015-Sep-04 09:32 045 2 gusting 6 13.9
2015-Sep-04 09:27 068 2 gusting 6 13.9
2015-Sep-04 09:22 068 3 gusting 6 13.9
2015-Sep-04 09:17 068 4 gusting 6 13.9
2015-Sep-04 09:12 068 3 gusting 6 13.9
2015-Sep-04 09:07 068 3 gusting 6 13.9
2015-Sep-04 09:02 068 3 gusting 6 13.9
2015-Sep-04 08:57 068 3 gusting 6 13.9
2015-Sep-04 08:52 13.9
2015-Sep-04 08:47 068 2 gusting 3 13.9
2015-Sep-04 08:42 090 1 gusting 4 13.9
2015-Sep-04 08:37 068 1 gusting 4 13.9
2015-Sep-04 08:32 113 2 gusting 5 13.9
2015-Sep-04 08:27 090 2 gusting 5 13.9
2015-Sep-04 08:22 113 1 gusting 6 13.9
2015-Sep-04 08:17 068 1 gusting 6 13.9
2015-Sep-04 08:12 068 2 gusting 4 13.9
2015-Sep-04 08:07 068 2 gusting 6 13.3
2015-Sep-04 08:02 023 2 gusting 6 13.3
2015-Sep-04 07:57 068 2 gusting 6 13.3
2015-Sep-04 07:52 068 2 gusting 4 13.3
2015-Sep-04 07:47 068 2 gusting 4 13.3
2015-Sep-04 07:42 090 1 gusting 4 13.3
2015-Sep-04 07:37 068 1 gusting 3 12.8
2015-Sep-04 07:32 12.8
2015-Sep-04 07:27 045 0 gusting 3 12.2
2015-Sep-04 07:22 12.2
2015-Sep-04 07:17 090 1 gusting 4 12.2
2015-Sep-04 07:12 023 1 gusting 4 11.7
2015-Sep-04 07:07 023 2 gusting 4 11.7
2015-Sep-04 07:02 023 2 gusting 4 11.7
2015-Sep-04 06:57 023 2 gusting 4 11.1
2015-Sep-04 06:52 045 1 gusting 4 11.1
2015-Sep-04 06:47 045 1 gusting 3 11.1
2015-Sep-04 06:42 338 0 gusting 3 10.6
2015-Sep-04 06:37 068 1 gusting 3 10.6
2015-Sep-04 06:32 023 1 gusting 3 10.6
2015-Sep-04 06:27 10.6
2015-Sep-04 06:22 068 1 gusting 3 10.0
2015-Sep-04 06:17 023 1 gusting 5 10.0
2015-Sep-04 06:12 023 1 gusting 5 10.0
2015-Sep-04 06:07 023 1 gusting 5 10.0
2015-Sep-04 06:02 023 1 gusting 2 9.4
2015-Sep-04 05:57 023 0 gusting 2 9.4
2015-Sep-04 05:52 023 0 gusting 2 9.4
2015-Sep-04 05:47 023 0 gusting 2 8.9
2015-Sep-04 05:42 338 0 gusting 1 8.9
2015-Sep-04 05:37 023 0 gusting 1 8.9
2015-Sep-04 05:32 338 0 gusting 1 8.9
2015-Sep-04 05:27 023 0 gusting 1 8.3
2015-Sep-04 05:22 045 7.8
2015-Sep-04 05:17 023 7.8
2015-Sep-04 05:12 338 7.8
2015-Sep-04 05:07 023 7.2
2015-Sep-04 05:02 338 7.2
2015-Sep-04 04:57 023 7.2
2015-Sep-04 04:52 023 6.7
2015-Sep-04 04:47 338 6.7
2015-Sep-04 04:42 338 6.7
2015-Sep-04 04:37 338 6.7
2015-Sep-04 04:32 338 6.7
2015-Sep-04 04:27 6.7
2015-Sep-04 04:22 338 6.7
2015-Sep-04 04:17 338 6.1
2015-Sep-04 04:12 338 6.1
2015-Sep-04 04:07 338 6.1
2015-Sep-04 04:02 338 6.1
2015-Sep-04 03:57 338 6.1
2015-Sep-04 03:52 338 6.1
2015-Sep-04 03:47 338 6.1
2015-Sep-04 03:42 338 5.6
2015-Sep-04 03:37 338 5.6
2015-Sep-04 03:32 315 5.6
2015-Sep-04 03:27 338 5.6
2015-Sep-04 03:22 338 5.6
2015-Sep-04 03:17 338 5.0
2015-Sep-04 03:12 315 0 gusting 1 5.0
2015-Sep-04 03:07 315 0 gusting 1 5.0
2015-Sep-04 03:02 315 5.0
2015-Sep-04 02:57 023 5.0
2015-Sep-04 02:52 023 5.0
2015-Sep-04 02:47 315 5.0
2015-Sep-04 02:42 023 5.0
2015-Sep-04 02:37 338 4.4
2015-Sep-04 02:32 338 4.4
2015-Sep-04 02:27 4.4
2015-Sep-04 02:22 4.4
2015-Sep-04 02:17 4.4
2015-Sep-04 02:12 3.9
2015-Sep-04 02:07 315 3.9
2015-Sep-04 02:02 338 0 gusting 1 3.9
2015-Sep-04 01:57 338 0 gusting 1 3.9
2015-Sep-04 01:52 315 0 gusting 1 3.3
2015-Sep-04 01:47 338 3.3
2015-Sep-04 01:42 315 3.3
2015-Sep-04 01:37 3.3
2015-Sep-04 01:32 3.3
2015-Sep-04 01:27 3.3
2015-Sep-04 01:22 3.3
2015-Sep-04 01:17 3.3
2015-Sep-04 01:12 3.3
2015-Sep-04 01:07 3.3
2015-Sep-04 01:02 3.3
2015-Sep-04 00:57 3.3
2015-Sep-04 00:52 3.3
2015-Sep-04 00:47 3.3
2015-Sep-04 00:42 3.3
2015-Sep-04 00:37 3.3
2015-Sep-04 00:32 3.3
2015-Sep-04 00:27 3.3
2015-Sep-04 00:22 3.3
2015-Sep-04 00:17 3.3
2015-Sep-04 00:12 3.3
2015-Sep-04 00:07 3.3
2015-Sep-04 00:02 3.3
2015-Sep-03 23:57 3.3
2015-Sep-03 23:52 3.3
2015-Sep-03 23:47 3.3
2015-Sep-03 23:42 3.3
2015-Sep-03 23:37 3.3
2015-Sep-03 23:32 3.3
2015-Sep-03 23:27 3.3
2015-Sep-03 23:22 3.3
2015-Sep-03 23:17 3.3
2015-Sep-03 23:12 3.3
2015-Sep-03 23:07 3.3
2015-Sep-03 23:02 3.3
2015-Sep-03 22:57 3.9
2015-Sep-03 22:52 3.3
2015-Sep-03 22:47 3.9
2015-Sep-03 22:42 3.9
2015-Sep-03 22:37 3.9
2015-Sep-03 22:32 3.9
2015-Sep-03 22:27 3.9
2015-Sep-03 22:22 3.9
2015-Sep-03 22:17 3.9
2015-Sep-03 22:12 338 3.9
2015-Sep-03 22:07 3.9
2015-Sep-03 22:02 338 3.9
2015-Sep-03 21:57 3.9
2015-Sep-03 21:52 4.4
2015-Sep-03 21:47 4.4
2015-Sep-03 21:42 338 4.4
2015-Sep-03 21:37 4.4
2015-Sep-03 21:32 4.4
2015-Sep-03 21:27 4.4
2015-Sep-03 21:22 4.4
2015-Sep-03 21:17 4.4
2015-Sep-03 21:12 338 5.0
2015-Sep-03 21:06 338 5.0
2015-Sep-03 20:57 5.0
2015-Sep-03 20:52 5.0
2015-Sep-03 20:47 5.0
2015-Sep-03 20:42 5.0
2015-Sep-03 20:37 5.6
2015-Sep-03 20:32 5.6
2015-Sep-03 20:27 5.6
2015-Sep-03 20:22 5.6
2015-Sep-03 20:17 5.6
2015-Sep-03 20:12 5.6
2015-Sep-03 20:07 5.6
2015-Sep-03 20:02 5.6
2015-Sep-03 19:57 6.1
2015-Sep-03 19:52 6.1
2015-Sep-03 19:47 6.1
2015-Sep-03 19:42 6.1
2015-Sep-03 19:37 6.1
2015-Sep-03 19:32 6.7
2015-Sep-03 19:27 6.7
2015-Sep-03 19:22 6.7
2015-Sep-03 19:17 6.7
2015-Sep-03 19:12 6.7
2015-Sep-03 19:07 7.2
2015-Sep-03 19:02 7.2
2015-Sep-03 18:57 7.2
2015-Sep-03 18:52 7.8
2015-Sep-03 18:47 7.8
2015-Sep-03 18:42 7.8
2015-Sep-03 18:37 7.8
2015-Sep-03 18:32 8.3
2015-Sep-03 18:27 8.3
2015-Sep-03 18:22 8.3
2015-Sep-03 18:17 8.3
2015-Sep-03 18:12 8.3
2015-Sep-03 18:07 8.9
2015-Sep-03 18:02 8.9
2015-Sep-03 17:42 9.4
2015-Sep-03 17:37 9.4
2015-Sep-03 17:32 10.0
2015-Sep-03 17:27 10.0
2015-Sep-03 17:22 10.6
2015-Sep-03 17:17 10.6
2015-Sep-03 17:12 10.6
2015-Sep-03 17:07 11.1
2015-Sep-03 17:02 11.1
2015-Sep-03 16:57 11.1
2015-Sep-03 16:52 11.1
2015-Sep-03 16:47 11.7
2015-Sep-03 16:42 11.7
2015-Sep-03 16:37 11.7
2015-Sep-03 16:32 11.7
2015-Sep-03 16:27 11.7
2015-Sep-03 16:22 11.7
2015-Sep-03 16:17 12.2
2015-Sep-03 16:12 12.2
2015-Sep-03 16:07 12.2
2015-Sep-03 16:02 12.2